Regional Weather Roundup
Issued by NWS Huntsville, AL

Home | Current Version | Previous Version | Text Only | Print | Product List | Glossary On
Versions: 1 2 3 4 5 6 7 8 9 10 11 12 13 14 15 16 17 18 19 20 21 22 23 24 25 26 27 28 29 30 31 32 33 34 35 36 37 38 39 40 41 42 43 44 45 46 47 48 49 50
000
ASUS44 KHUN 262110
RWRHUN

WEATHER ROUNDUP FOR THE TENNESSEE VALLEY
NATIONAL WEATHER SERVICE HUNTSVILLE AL
400 PM CDT MON SEP 26 2016

ALZ001>004-262200-
NORTHWEST ALABAMA

CITY           SKY/WX    TMP DP  RH WIND       PRES   REMARKS
COURTLAND HCN    N/A     84 N/A N/A N7          N/A
SHOALS AIRPORT MOSUNNY   86  65  49 VRB7      30.02S
SHOALS TVA RES   N/A     84 N/A N/A MISG        N/A
$$

ALZ005>007-016-262200-
NORTH CENTRAL ALABAMA

CITY           SKY/WX    TMP DP  RH WIND       PRES   REMARKS
CULLMAN AG STN   N/A     90 N/A N/A NW7         N/A
DECATUR AP     SUNNY     87  68  52 N13       30.00R HX  90
HUNTSVILLE AP  MOSUNNY   89  66  46 N14       29.99R HX  91
MERIDIANVILLE  MOSUNNY   82  61  47 N10       30.01S
REDSTONE ARSN  SUNNY     86  68  54 NE13      29.98S HX  90
VINEMONT AP    FAIR      87  64  46 NW8       30.01F
$$

ALZ008>010-262200-
NORTHEAST ALABAMA

CITY           SKY/WX    TMP DP  RH WIND       PRES   REMARKS
ALBERTVILLE    CLOUDY    81  72  74 CALM      29.99F
FORT PAYNE     CLOUDY    72  68  88 CALM      30.01F
SCOTTSBORO AP  CLOUDY    84  64  51 CALM      29.99F
SCOTTSBORO HCN   N/A     84 N/A N/A MISG        N/A
VALLEY HEAD      N/A     72 N/A N/A MISG        N/A
$$

TNZ076-096-097-262200-
SOUTHEASTERN MIDDLE TENNESSEE

CITY           SKY/WX    TMP DP  RH WIND       PRES   REMARKS
TULLAHOMA      SUNNY     79  64  61 N7        30.05S
WINCHESTER     SUNNY     81  66  61 N7        30.03F
$$

...SURROUNDING SITES...

CITY           SKY/WX    TMP DP  RH WIND       PRES   REMARKS
ATLANTA        MOSUNNY   86  62  44 SE7       29.99F
ANNISTON       PTSUNNY   93  57  29 MISG      29.95F HX  91
BIRMINGHAM     CLOUDY    84  65  52 NW18      29.99R
CHATTANOOGA    CLOUDY    74  69  85 S5        30.00F
CORINTH        FAIR      77  61  57 N10       30.04F
DALTON         LGT RAIN  70  70 100 NE3       30.04R
GADSDEN        CLOUDY    83  66  56 N10       29.97S
GOLDEN TRNGL   NOT AVBL
HALEYVILLE     FAIR      86  68  54 N9        30.02S
JACKSON TN     PTSUNNY  N/A N/A N/A NE6       30.09F
MEMPHIS        CLOUDY    76  60  57 N14       30.07F
NASHVILLE      CLOUDY    65  62  90 NW5       30.08S
OXFORD MS      FAIR      77  59  53 N12       30.05F
ROME           LGT RAIN  70  68  93 N8        30.02R FOG
SAVANNAH       MOSUNNY   72  61  68 N10G16    30.05F
TUPELO         SUNNY     86  62  44 N16       29.99F
TUSCALOOSA     MOSUNNY   81  64  56 NW9       29.95R
$$

...GULF COAST WEATHER...

CITY           SKY/WX    TMP DP  RH WIND       PRES   REMARKS
GULFPORT       MOSUNNY   91  71  51 VRB7      29.92F HX  97
PASCAGOULA     MOSUNNY   88  76  67 S6        29.93F HX  99
MOBILE         CLOUDY    86  70  58 S13       29.94S HX  90
GULF SHORES    LGT RAIN  75  74  99 NE10      29.96F
PENSACOLA      LGT RAIN  74  71  91 N5        29.96F
DESTIN         SUNNY     89  75  63 VRB7      29.94F HX  99
PANAMA CITY    MOSUNNY   85  71  62 VRB3      29.96R HX  91
APPALACHICOLA  PTSUNNY   84  77  79 S6        29.94S HX  94
$$




USA.gov is the U.S. government's official web portal to all federal, state and local government web resources and services.